[[{"header":{"parameterUnit":"m.s-1","parameterCategory":2,"la1":30.2991,"la2":30.254,"lo1":-89.0895,"lo2":-89.0444,"dy":0.0017,"dx":0.0017,"nx":28,"ny":28,"refTime":"2025-01-25T03:00:00:Z","depth":"0","parameterNumber":2,"parameterNumberName":"U-component_of_CURRENTS"},"data":[0,0,0,0,0,0,0,0,0,0,0,0,0,0,0,0,0,0,0,0,0,0,0,0,0,0,0,0,0,0,0,0,0,0,0,0,0,0,0,0,0,0,0,0,0,0,0,0,0,0,0,0,0,0,0,0,0,0,-0.3942,-0.3941,0,-0.3858,-0.3857,-0.3855,-0.3789,-0.3789,-0.3788,-0.3788,-0.3639,-0.3636,-0.3632,0,0,0,0,0,0,0,0,0,0,0,0,0,-0.3883,-0.3885,-0.3942,-0.3941,-0.394,-0.3858,-0.3857,-0.3855,-0.3789,-0.3789,-0.3788,-0.3788,-0.3641,-0.3636,-0.3632,0,0,0,0,0,0,0,0,0,0,0,0,0,-0.3862,-0.3885,-0.3942,-0.39,-0.3896,-0.3858,-0.3857,-0.3855,-0.3789,-0.3789,-0.3788,-0.3788,-0.3642,-0.3637,-0.3631,-0.3608,0,0,-0.3615,-0.3612,0,0,0,0,0,0,0,0,-0.3863,-0.3863,-0.3907,-0.3903,-0.3898,-0.3837,-0.3781,-0.377,-0.3789,-0.3826,-0.3788,-0.3787,-0.3702,-0.3692,-0.3673,-0.3601,-0.3594,-0.3614,-0.3611,-0.3608,-0.3607,0,0,0,0,0,0,0,-0.3865,-0.3866,-0.3905,-0.3906,-0.3901,-0.383,-0.3828,-0.3778,-0.3764,-0.3823,-0.3819,-0.3815,-0.3698,-0.3678,-0.3669,-0.3592,-0.3614,-0.3609,-0.3606,-0.3604,-0.3504,-0.3505,0,0,0,0,0,0,-0.3892,-0.3869,-0.3908,-0.3903,-0.3883,-0.3833,-0.383,-0.3854,-0.3766,-0.3753,-0.3816,-0.3812,-0.3688,-0.3675,-0.3663,-0.3647,-0.3608,-0.3603,-0.36,-0.3504,-0.3504,-0.3505,0,0,0,0,0,0,-0.3891,-0.3897,-0.3911,-0.3884,-0.3881,-0.3836,-0.3862,-0.3853,-0.3837,-0.3762,-0.3747,-0.3811,-0.3687,-0.3671,-0.3624,-0.364,-0.3601,-0.3596,-0.3503,-0.3504,-0.3505,-0.3603,0,0,0,0,0,0,-0.3891,-0.3898,-0.3922,-0.3888,-0.3884,-0.3907,-0.3863,-0.3851,-0.3837,-0.3832,-0.3753,-0.3738,-0.3685,-0.3633,-0.3619,-0.3632,-0.3592,-0.3502,-0.3503,-0.3504,-0.3599,-0.3607,-0.3614,0,0,0,0,0,-0.3889,-0.3932,-0.3925,-0.3929,-0.3921,-0.3908,-0.39,-0.3861,-0.3838,-0.3842,-0.3782,-0.3741,-0.3631,-0.3629,-0.3612,-0.3624,-0.3501,-0.3503,-0.3504,-0.3595,-0.3605,-0.3614,0,0,0,0,0,0,-0.3919,-0.3929,-0.392,-0.3964,-0.3944,-0.3899,-0.3899,-0.3871,-0.3827,-0.3818,-0.3742,-0.3724,-0.3693,-0.3644,-0.3644,-0.3599,-0.3562,-0.3561,-0.3637,-0.3646,-0.3654,-0.3691,-0.3587,0,0,0,0,0,-0.394,-0.3972,-0.3959,-0.399,-0.3988,-0.3944,-0.3932,-0.3908,-0.3866,-0.3847,-0.3794,-0.3734,-0.3685,-0.3655,-0.3609,-0.3578,-0.3565,-0.3576,-0.3584,-0.3591,-0.3611,-0.3626,-0.3638,-0.351,-0.351,-0.351,0,0,-0.3955,-0.3967,-0.3981,-0.3997,-0.3976,-0.3986,-0.3935,-0.3931,-0.393,-0.3837,-0.3819,-0.3761,-0.3684,-0.3654,-0.3636,-0.3614,-0.3616,-0.3593,-0.3599,-0.3615,-0.3629,-0.3642,-0.3653,-0.3511,-0.3511,-0.351,0,0,-0.3994,-0.4018,-0.405,-0.405,-0.4041,-0.4019,-0.4025,-0.3991,-0.397,-0.394,-0.3879,-0.3837,-0.3755,-0.3714,-0.3677,-0.3699,-0.3661,-0.3679,-0.3741,-0.3756,-0.3767,-0.3777,-0.3763,-0.3771,-0.3678,-0.3678,-0.3678,0,-0.4011,-0.4064,-0.4052,-0.4082,-0.41,-0.4043,-0.4079,-0.4044,-0.3997,-0.3991,-0.3949,-0.3857,-0.3788,-0.376,-0.3759,-0.3719,-0.3714,-0.3712,-0.3769,-0.3778,-0.3787,-0.377,-0.3778,-0.3683,-0.3683,-0.3682,-0.3682,0,-0.406,-0.4113,-0.4133,-0.4163,-0.4175,-0.4197,-0.4168,-0.4162,-0.4125,-0.4086,-0.4056,-0.3963,-0.3914,-0.388,-0.3814,-0.3837,-0.3808,-0.3784,-0.3753,-0.3807,-0.3784,-0.379,-0.369,-0.3688,-0.3687,-0.3686,0,0,-0.4047,-0.4157,-0.4155,-0.4212,-0.4232,-0.4246,-0.4261,-0.4262,-0.427,-0.4203,-0.4217,-0.4113,-0.4064,-0.4021,-0.3944,-0.3938,-0.3969,-0.3889,-0.3887,-0.3888,-0.3992,-0.3728,-0.3708,-0.3964,-0.3966,-0.3967,-0.3947,0,-0.4082,-0.4202,-0.423,-0.4316,-0.4379,-0.4373,-0.4393,-0.4383,-0.4347,-0.4338,-0.4249,-0.4214,-0.4114,-0.4088,-0.4071,-0.4,-0.3993,-0.3976,-0.3928,-0.3926,-0.3697,-0.3709,-0.3525,-0.347,-0.3952,-0.3953,-0.3954,0,-0.4087,-0.4187,-0.4314,-0.4441,-0.4462,-0.4491,-0.4541,-0.4548,-0.4516,-0.449,-0.4448,-0.4372,-0.4328,-0.4243,-0.4174,-0.4171,-0.4096,-0.4037,-0.4035,-0.3762,-0.3673,-0.3495,-0.3463,-0.3438,-0.3963,-0.3962,-0.3962,0,-0.4083,-0.4225,-0.435,-0.4391,-0.4512,-0.4556,-0.459,-0.459,-0.4584,-0.4582,-0.4563,-0.4521,-0.4445,-0.441,-0.4204,-0.4232,-0.4107,-0.4139,-0.3835,-0.3816,-0.3633,-0.3591,-0.3578,-0.4116,-0.4116,-0.4116,-0.4116,0,-0.4116,-0.4194,-0.436,-0.4427,-0.4515,-0.4597,-0.4647,-0.4662,-0.4678,-0.4589,-0.4627,-0.4503,-0.448,-0.4355,-0.4265,-0.4006,-0.4148,-0.3843,-0.3791,-0.3653,-0.3615,-0.3559,-0.3595,-0.4115,-0.4115,-0.4116,-0.4116,0,-0.4078,-0.42,-0.432,-0.4484,-0.4517,-0.4566,-0.4642,-0.4611,-0.4697,-0.4589,-0.4581,-0.4505,-0.4312,-0.424,-0.4112,-0.3997,-0.375,-0.3718,-0.3519,-0.3441,-0.3161,-0.3208,-0.3106,-0.3025,-0.3472,-0.3465,-0.346,0,-0.4075,-0.4152,-0.4315,-0.4296,-0.4357,-0.4444,-0.4412,-0.4558,-0.4491,-0.4468,-0.4338,-0.4229,-0.396,-0.3737,-0.3561,-0.3404,-0.3421,-0.3149,-0.3162,-0.31,-0.3121,-0.3168,-0.3116,-0.2982,-0.2973,-0.2965,-0.2959,0,-0.3997,-0.4049,-0.4097,-0.4115,-0.41,-0.4129,-0.4121,-0.4119,-0.4158,-0.4108,-0.3884,-0.3736,-0.3485,-0.3175,-0.2995,-0.2886,-0.3062,-0.2984,-0.301,-0.2789,-0.2759,-0.2667,-0.3042,-0.2893,-0.29,-0.2904,-0.2908,-0.2911,-0.3802,-0.3811,-0.382,-0.3811,-0.3789,-0.371,-0.3632,-0.3597,-0.3511,-0.3316,-0.3345,-0.3072,-0.2909,-0.2611,-0.2503,-0.233,-0.2492,-0.2309,-0.2392,-0.2462,-0.2309,-0.2482,-0.2199,-0.2201,-0.2204,-0.2205,-0.2207,0,-0.3498,-0.3511,-0.3477,-0.3417,-0.3268,-0.3391,-0.3295,-0.3143,-0.2908,-0.2801,-0.2613,-0.2415,-0.2142,-0.209,-0.1924,-0.1823,-0.1862,-0.1808,-0.1928,-0.1921,-0.2143,-0.2041,-0.1598,-0.1598,-0.1598,-0.1598,-0.1598,-0.1598,-0.3286,-0.3168,-0.3203,-0.2891,-0.2833,-0.258,-0.2485,-0.2312,-0.2211,-0.1928,-0.1822,-0.1827,-0.184,-0.1868,-0.1705,-0.1617,-0.1659,-0.1535,-0.1646,-0.1901,-0.196,-0.2015,-0.1929,-0.1469,-0.1469,-0.1353,-0.1352,-0.1352]},{"header":{"parameterUnit":"m.s-1","parameterCategory":2,"la1":30.2991,"la2":30.254,"lo1":-89.0895,"lo2":-89.0444,"dy":0.0017,"dx":0.0017,"nx":28,"ny":28,"refTime":"2025-01-25T03:00:00:Z","depth":"0","parameterNumber":3,"parameterNumberName":"V-component_of_CURRENTS"},"data":[0,0,0,0,0,0,0,0,0,0,0,0,0,0,0,0,0,0,0,0,0,0,0,0,0,0,0,0,0,0,0,0,0,0,0,0,0,0,0,0,0,0,0,0,0,0,0,0,0,0,0,0,0,0,0,0,0,0,0.0349,0.0349,0,0.0399,0.04,0.04,0.044,0.044,0.044,0.0441,0.0507,0.0508,0.0509,0,0,0,0,0,0,0,0,0,0,0,0,0,0.0289,0.029,0.0349,0.0349,0.035,0.0399,0.04,0.04,0.044,0.044,0.044,0.0441,0.0506,0.0508,0.0509,0,0,0,0,0,0,0,0,0,0,0,0,0,0.0325,0.029,0.0349,0.0375,0.0378,0.0399,0.04,0.0401,0.044,0.044,0.0441,0.0441,0.0505,0.0508,0.051,0.0513,0,0,0.0516,0.0517,0,0,0,0,0,0,0,0,0.0323,0.0327,0.037,0.0373,0.0376,0.0413,0.0403,0.0439,0.0439,0.0417,0.0441,0.0441,0.0476,0.0481,0.049,0.0516,0.0519,0.0517,0.0518,0.0519,0.0519,0,0,0,0,0,0,0,0.0321,0.0326,0.0369,0.0371,0.0375,0.0385,0.0391,0.041,0.0444,0.0419,0.0421,0.0426,0.0478,0.0487,0.0491,0.052,0.0516,0.0518,0.052,0.0521,0.056,0.056,0,0,0,0,0,0,0.0313,0.0323,0.0368,0.0371,0.035,0.0386,0.0392,0.0401,0.0443,0.045,0.0426,0.0428,0.0483,0.0489,0.0494,0.0494,0.0519,0.0521,0.0522,0.0561,0.056,0.056,0,0,0,0,0,0,0.0311,0.0316,0.0365,0.0347,0.0354,0.0386,0.0396,0.0402,0.0411,0.0448,0.0455,0.0429,0.0484,0.0491,0.051,0.0497,0.0522,0.0524,0.0561,0.056,0.056,0.0499,0,0,0,0,0,0,0.031,0.0316,0.0321,0.0347,0.0355,0.0372,0.0396,0.0403,0.0413,0.0417,0.0453,0.046,0.0485,0.0507,0.0512,0.0501,0.0525,0.0561,0.0561,0.056,0.0501,0.0496,0.0492,0,0,0,0,0,0.0307,0.0299,0.0321,0.0327,0.0361,0.0371,0.0376,0.0401,0.0413,0.0412,0.044,0.0459,0.0508,0.0508,0.0515,0.0503,0.0561,0.0561,0.056,0.0503,0.0497,0.0492,0,0,0,0,0,0,0.0289,0.0303,0.0328,0.0331,0.0351,0.0377,0.0372,0.0395,0.0417,0.0417,0.0457,0.0465,0.048,0.05,0.0499,0.0515,0.0537,0.0538,0.0491,0.0486,0.0482,0.0449,0.0527,0,0,0,0,0,0.0286,0.0273,0.0308,0.0309,0.0314,0.0346,0.0353,0.0371,0.0393,0.0403,0.0433,0.046,0.0482,0.049,0.0516,0.052,0.0548,0.0518,0.0514,0.051,0.0488,0.0507,0.0501,0.0558,0.0558,0.0558,0,0,0.0273,0.0284,0.0276,0.0302,0.0315,0.0308,0.035,0.0352,0.0352,0.0405,0.0411,0.0449,0.0482,0.0491,0.0499,0.0505,0.0518,0.0509,0.0505,0.0485,0.0506,0.05,0.0495,0.0558,0.0558,0.0558,0,0,0.0223,0.0256,0.0221,0.0237,0.0256,0.0276,0.0275,0.0305,0.0324,0.0341,0.0379,0.0402,0.044,0.0457,0.047,0.0455,0.0498,0.047,0.0413,0.0431,0.0426,0.0422,0.0489,0.0491,0.0461,0.0461,0.046,0,0.0203,0.0181,0.0216,0.0197,0.0197,0.0256,0.0227,0.0257,0.0293,0.0294,0.0334,0.0377,0.0418,0.0411,0.0416,0.0442,0.0476,0.0429,0.0424,0.042,0.0417,0.0485,0.0488,0.0458,0.0458,0.0458,0.0458,0,0.0129,0.0121,0.0101,0.0094,0.0107,0.0089,0.0137,0.0151,0.0188,0.0214,0.0232,0.0296,0.0314,0.0341,0.0378,0.0369,0.0413,0.0421,0.0432,0.0407,0.0482,0.0486,0.0453,0.0454,0.0455,0.0456,0,0,0.0022,0.0041,0.0025,0.0012,0.0048,0.0038,0.0048,0.0054,0.0042,0.0104,0.0093,0.0152,0.0191,0.021,0.0264,0.0288,0.0327,0.0341,0.0344,0.0399,0.0404,0.0413,0.042,0.0332,0.0331,0.0331,0.048,0,-0.0062,-0.0125,-0.0083,-0.0139,-0.017,-0.01,-0.01,-0.0074,-0.0031,-0.0016,0.0051,0.007,0.0141,0.0157,0.0191,0.0301,0.0328,0.0288,0.0426,0.0431,0.0434,0.042,0.043,0.0559,0.0484,0.0485,0.0485,0,-0.0182,-0.0201,-0.0269,-0.0266,-0.0273,-0.0279,-0.0282,-0.0265,-0.0213,-0.0176,-0.0139,-0.0072,-0.0007,0.0053,0.0199,0.0173,0.0269,0.0353,0.036,0.0383,0.0445,0.0566,0.057,0.0741,0.0492,0.0492,0.0491,0,-0.033,-0.035,-0.041,-0.0409,-0.0381,-0.0392,-0.0374,-0.0331,-0.0321,-0.0273,-0.0245,-0.0176,-0.0092,0.0,0.0201,0.0195,0.0374,0.0387,0.0481,0.0487,0.0525,0.0533,0.0695,0.0446,0.0446,0.0445,0.0445,0,-0.0471,-0.0526,-0.048,-0.0516,-0.058,-0.0506,-0.0548,-0.0519,-0.0457,-0.0431,-0.0333,-0.0277,-0.0101,0.0037,0.0171,0.0361,0.0353,0.0465,0.0507,0.051,0.0513,0.0687,0.0755,0.0451,0.045,0.0449,0.0448,0,-0.065,-0.0617,-0.0685,-0.0661,-0.0653,-0.0703,-0.0652,-0.0655,-0.0578,-0.0527,-0.0507,-0.0331,-0.0148,0.0028,0.0234,0.0353,0.0595,0.0558,0.0575,0.0614,0.0817,0.0879,0.1047,0.113,0.067,0.0671,0.0671,0,-0.0749,-0.08,-0.0811,-0.0828,-0.0817,-0.0839,-0.0825,-0.0748,-0.0707,-0.0544,-0.0505,-0.0328,-0.0207,0.0105,0.0326,0.0535,0.0657,0.0683,0.064,0.0822,0.0924,0.0966,0.1027,0.0706,0.0707,0.0708,0.0709,0,-0.0924,-0.0924,-0.0962,-0.0995,-0.0994,-0.0989,-0.0939,-0.0933,-0.0781,-0.0719,-0.0565,-0.0472,-0.0147,0.0102,0.0389,0.052,0.0788,0.0702,0.0881,0.0943,0.1008,0.1112,0.0658,0.0715,0.0715,0.0714,0.0714,0.0713,-0.1035,-0.1106,-0.1119,-0.1152,-0.1137,-0.1086,-0.1081,-0.0994,-0.0938,-0.0788,-0.0652,-0.0485,-0.0063,0.0318,0.049,0.0883,0.0849,0.0991,0.1054,0.1082,0.1137,0.0706,0.08,0.08,0.0799,0.0799,0.0799,0,-0.1147,-0.1193,-0.1245,-0.1245,-0.1215,-0.1177,-0.1101,-0.1057,-0.0981,-0.0845,-0.0726,-0.0311,0.0072,0.0482,0.103,0.1243,0.1295,0.1359,0.1442,0.1488,0.1111,0.1086,0.1256,0.1256,0.1256,0.1256,0.1256,0.1255,-0.1195,-0.1282,-0.1301,-0.1281,-0.1257,-0.1194,-0.1147,-0.1092,-0.0989,-0.0789,-0.0569,-0.041,0.021,0.1088,0.1607,0.1653,0.1853,0.1817,0.1936,0.1704,0.1675,0.1648,0.1643,0.1927,0.1928,0.2293,0.2297,0.2299]}],[{"header":{"parameterUnit":"m.s-1","parameterCategory":2,"la1":30.2991,"la2":30.254,"lo1":-89.0895,"lo2":-89.0444,"dy":0.0017,"dx":0.0017,"nx":28,"ny":28,"refTime":"2025-01-25T03:00:00:Z","depth":"2","parameterNumber":2,"parameterNumberName":"U-component_of_CURRENTS"},"data":[0,0,0,0,0,0,0,0,0,0,0,0,0,0,0,0,0,0,0,0,0,0,0,0,0,0,0,0,0,0,0,0,0,0,0,0,0,0,0,0,0,0,0,0,0,0,0,0,0,0,0,0,0,0,0,0,0,0,-0.1819,-0.182,0,-0.2005,-0.2009,-0.2012,-0.2122,-0.2121,-0.212,-0.2119,-0.2328,-0.2334,-0.234,0,0,0,0,0,0,0,0,0,0,0,0,0,-0.1911,-0.1908,-0.1819,-0.182,-0.1822,-0.2005,-0.2009,-0.2013,-0.2122,-0.2121,-0.212,-0.2119,-0.2326,-0.2333,-0.2341,0,0,0,0,0,0,0,0,0,0,0,0,0,-0.1974,-0.1907,-0.1819,-0.1888,-0.1895,-0.2004,-0.2009,-0.2014,-0.2122,-0.2121,-0.212,-0.2118,-0.2323,-0.2332,-0.2342,-0.2424,0,0,-0.2371,-0.2375,0,0,0,0,0,0,0,0,-0.197,-0.1972,-0.1877,-0.1883,-0.1891,-0.2027,-0.2117,-0.2147,-0.2122,-0.205,-0.2119,-0.2118,-0.2221,-0.2239,-0.2296,-0.2433,-0.2442,-0.2371,-0.2377,-0.2381,-0.2384,0,0,0,0,0,0,0,-0.1965,-0.1967,-0.1907,-0.1878,-0.1886,-0.2029,-0.2035,-0.2126,-0.2151,-0.2057,-0.2061,-0.2061,-0.2227,-0.2287,-0.2301,-0.2445,-0.2371,-0.238,-0.2385,-0.2389,-0.2605,-0.2605,0,0,0,0,0,0,-0.1896,-0.196,-0.1901,-0.1911,-0.1913,-0.2026,-0.2034,-0.1996,-0.215,-0.2168,-0.2061,-0.2065,-0.2271,-0.229,-0.2309,-0.2409,-0.2381,-0.239,-0.2395,-0.2605,-0.2605,-0.2605,0,0,0,0,0,0,-0.1897,-0.1888,-0.1893,-0.1933,-0.1941,-0.2021,-0.1981,-0.2,-0.2111,-0.2151,-0.2172,-0.2156,-0.2271,-0.2296,-0.2428,-0.2417,-0.2394,-0.2403,-0.2605,-0.2605,-0.2605,-0.2613,0,0,0,0,0,0,-0.1898,-0.1886,-0.1853,-0.1925,-0.1935,-0.2053,-0.1982,-0.2004,-0.2102,-0.211,-0.2239,-0.2254,-0.2272,-0.2414,-0.2437,-0.243,-0.241,-0.2605,-0.2605,-0.2605,-0.2612,-0.2613,-0.2614,0,0,0,0,0,-0.1901,-0.1866,-0.1849,-0.1843,-0.1879,-0.2058,-0.2085,-0.2146,-0.2108,-0.2229,-0.2252,-0.2253,-0.2427,-0.2425,-0.2452,-0.2446,-0.2605,-0.2605,-0.2605,-0.2612,-0.2613,-0.2614,0,0,0,0,0,0,-0.1868,-0.1874,-0.1858,-0.1816,-0.1965,-0.2073,-0.2125,-0.2185,-0.2303,-0.2271,-0.2311,-0.2334,-0.2417,-0.2451,-0.2447,-0.25,-0.2494,-0.25,-0.249,-0.2491,-0.2492,-0.2527,-0.2418,0,0,0,0,0,-0.1839,-0.182,-0.1908,-0.1886,-0.194,-0.2045,-0.2114,-0.2182,-0.2273,-0.2327,-0.2396,-0.2419,-0.2434,-0.2485,-0.2528,-0.2619,-0.2663,-0.2611,-0.2612,-0.2612,-0.2655,-0.2739,-0.2753,-0.2606,-0.2606,-0.2606,0,0,-0.1816,-0.1809,-0.1799,-0.1883,-0.1957,-0.2101,-0.2092,-0.2219,-0.2321,-0.2325,-0.246,-0.2452,-0.2459,-0.2517,-0.2554,-0.2555,-0.2665,-0.2613,-0.2613,-0.2657,-0.2741,-0.2756,-0.277,-0.2606,-0.2606,-0.2606,0,0,-0.1838,-0.1764,-0.1815,-0.195,-0.208,-0.2143,-0.22,-0.2355,-0.2404,-0.2541,-0.2495,-0.2511,-0.2611,-0.2592,-0.2584,-0.2633,-0.2662,-0.2614,-0.2668,-0.2747,-0.2762,-0.2775,-0.2803,-0.2819,-0.262,-0.262,-0.262,0,-0.1814,-0.1858,-0.1884,-0.2022,-0.2117,-0.2173,-0.2338,-0.2403,-0.2585,-0.2623,-0.2587,-0.2647,-0.2631,-0.2664,-0.2624,-0.2636,-0.2684,-0.2661,-0.2752,-0.2766,-0.278,-0.2806,-0.2824,-0.2621,-0.2621,-0.2621,-0.2621,0,-0.1932,-0.1998,-0.2047,-0.2193,-0.2338,-0.2467,-0.2576,-0.2671,-0.2672,-0.2734,-0.2792,-0.276,-0.2797,-0.2741,-0.2686,-0.2742,-0.2742,-0.2739,-0.2757,-0.2796,-0.2819,-0.2838,-0.2621,-0.2621,-0.2621,-0.2621,0,0,-0.181,-0.2067,-0.2093,-0.2217,-0.2431,-0.2558,-0.2684,-0.2834,-0.2889,-0.2956,-0.3047,-0.2964,-0.2929,-0.2915,-0.284,-0.2867,-0.2918,-0.2836,-0.284,-0.2876,-0.3085,-0.2821,-0.2816,-0.2952,-0.2956,-0.2959,-0.3047,0,-0.1901,-0.2126,-0.2268,-0.2527,-0.2659,-0.2786,-0.2915,-0.3048,-0.3083,-0.3178,-0.3099,-0.3136,-0.2997,-0.2974,-0.2984,-0.2945,-0.2977,-0.2894,-0.3034,-0.3037,-0.281,-0.2831,-0.2611,-0.2649,-0.3064,-0.3067,-0.307,0,-0.2005,-0.2125,-0.2375,-0.2664,-0.2738,-0.2915,-0.3092,-0.3227,-0.3335,-0.3355,-0.3379,-0.3345,-0.3332,-0.3214,-0.3226,-0.319,-0.3145,-0.3112,-0.3116,-0.2896,-0.2809,-0.2686,-0.2667,-0.31,-0.3098,-0.3096,-0.3094,0,-0.1904,-0.222,-0.2384,-0.2499,-0.2818,-0.2956,-0.3105,-0.3277,-0.3348,-0.3471,-0.349,-0.354,-0.3489,-0.3516,-0.3318,-0.3334,-0.3327,-0.3358,-0.3098,-0.3079,-0.293,-0.2887,-0.3424,-0.3424,-0.3424,-0.3424,-0.3423,0,-0.1925,-0.2094,-0.235,-0.2463,-0.2706,-0.2929,-0.3138,-0.3295,-0.3421,-0.3435,-0.3552,-0.3484,-0.3561,-0.3505,-0.3431,-0.3248,-0.3415,-0.3122,-0.3094,-0.2911,-0.2869,-0.3302,-0.3286,-0.3427,-0.3426,-0.3425,-0.3425,0,-0.1856,-0.202,-0.2271,-0.2574,-0.27,-0.2875,-0.3188,-0.3224,-0.3392,-0.3407,-0.3429,-0.3479,-0.3392,-0.3406,-0.3394,-0.33,-0.3224,-0.3115,-0.2841,-0.2777,-0.2933,-0.2917,-0.2978,-0.297,-0.2963,-0.2957,-0.2952,0,-0.1875,-0.1945,-0.2311,-0.2422,-0.2595,-0.2839,-0.2942,-0.3204,-0.3179,-0.3272,-0.3186,-0.3209,-0.3058,-0.2998,-0.2918,-0.2865,-0.2958,-0.2606,-0.2587,-0.2925,-0.2894,-0.2889,-0.2883,-0.2403,-0.2394,-0.2387,-0.2381,0,-0.1864,-0.1962,-0.2092,-0.2304,-0.2483,-0.264,-0.2776,-0.2773,-0.2892,-0.2906,-0.2756,-0.2705,-0.2649,-0.2473,-0.2437,-0.236,-0.2625,-0.2447,-0.293,-0.2493,-0.2374,-0.2345,-0.2361,-0.2315,-0.2322,-0.2327,-0.233,-0.2333,-0.1819,-0.1899,-0.2004,-0.2164,-0.2295,-0.2299,-0.2338,-0.2339,-0.2325,-0.2256,-0.2277,-0.2183,-0.2223,-0.2059,-0.1934,-0.1915,-0.2122,-0.2085,-0.2115,-0.2151,-0.2011,-0.188,-0.1703,-0.1705,-0.1708,-0.171,-0.1712,0,-0.1737,-0.1779,-0.1852,-0.1996,-0.1907,-0.2115,-0.2082,-0.2006,-0.1865,-0.1867,-0.1796,-0.1609,-0.1514,-0.1586,-0.1455,-0.1431,-0.1507,-0.1375,-0.1494,-0.1557,-0.1613,-0.1454,-0.0995,-0.0993,-0.0991,-0.0989,0,0,-0.1717,-0.1696,-0.1679,-0.1545,-0.158,-0.1502,-0.1446,-0.1404,-0.1389,-0.1275,-0.1275,-0.1425,-0.1496,-0.1239,-0.1186,-0.1063,-0.1305,-0.1008,-0.1578,-0.1777,-0.1831,-0.2005,-0.1824,0,0,0,0,0]},{"header":{"parameterUnit":"m.s-1","parameterCategory":2,"la1":30.2991,"la2":30.254,"lo1":-89.0895,"lo2":-89.0444,"dy":0.0017,"dx":0.0017,"nx":28,"ny":28,"refTime":"2025-01-25T03:00:00:Z","depth":"2","parameterNumber":3,"parameterNumberName":"V-component_of_CURRENTS"},"data":[0,0,0,0,0,0,0,0,0,0,0,0,0,0,0,0,0,0,0,0,0,0,0,0,0,0,0,0,0,0,0,0,0,0,0,0,0,0,0,0,0,0,0,0,0,0,0,0,0,0,0,0,0,0,0,0,0,0,-0.0435,-0.0434,0,-0.0348,-0.0347,-0.0346,-0.0301,-0.0301,-0.0301,-0.0301,-0.0118,-0.0113,-0.0109,0,0,0,0,0,0,0,0,0,0,0,0,0,-0.0472,-0.0472,-0.0435,-0.0434,-0.0433,-0.0348,-0.0347,-0.0346,-0.0301,-0.0301,-0.0301,-0.0301,-0.012,-0.0114,-0.0108,0,0,0,0,0,0,0,0,0,0,0,0,0,-0.0427,-0.0472,-0.0435,-0.0401,-0.0397,-0.0348,-0.0347,-0.0345,-0.0301,-0.0301,-0.0301,-0.0301,-0.0122,-0.0114,-0.0107,-0.0062,0,0,-0.0085,-0.0082,0,0,0,0,0,0,0,0,-0.043,-0.0426,-0.0407,-0.0403,-0.0399,-0.0336,-0.0293,-0.0246,-0.0301,-0.0336,-0.0301,-0.0301,-0.0182,-0.017,-0.0154,-0.0053,-0.0045,-0.0084,-0.008,-0.0077,-0.0075,0,0,0,0,0,0,0,-0.0433,-0.0429,-0.04,-0.0406,-0.0401,-0.0359,-0.0353,-0.0284,-0.0258,-0.0333,-0.033,-0.0322,-0.0179,-0.0161,-0.0149,-0.0043,-0.0084,-0.0078,-0.0073,-0.0071,0.0133,0.0134,0,0,0,0,0,0,-0.045,-0.0432,-0.0402,-0.0397,-0.0416,-0.0359,-0.0352,-0.0355,-0.0261,-0.0247,-0.0322,-0.032,-0.0174,-0.0158,-0.0142,-0.0047,-0.0077,-0.007,-0.0066,0.0132,0.0133,0.0135,0,0,0,0,0,0,-0.0452,-0.0449,-0.0406,-0.0412,-0.0404,-0.0359,-0.0362,-0.0354,-0.0334,-0.0253,-0.0238,-0.031,-0.0173,-0.0153,-0.0068,-0.0041,-0.0067,-0.006,0.0131,0.0133,0.0134,0.0122,0,0,0,0,0,0,-0.0453,-0.045,-0.0456,-0.0414,-0.0405,-0.0376,-0.0362,-0.0352,-0.0329,-0.0326,-0.0238,-0.0222,-0.0172,-0.008,-0.0061,-0.0031,-0.0054,0.013,0.0132,0.0134,0.0121,0.0123,0.0124,0,0,0,0,0,-0.0455,-0.0463,-0.0457,-0.0453,-0.0416,-0.0376,-0.0367,-0.0334,-0.0329,-0.0317,-0.0252,-0.0224,-0.0055,-0.0072,-0.0051,-0.0018,0.0129,0.0131,0.0133,0.012,0.0122,0.0124,0,0,0,0,0,0,-0.0493,-0.0458,-0.0451,-0.0452,-0.0418,-0.0369,-0.0358,-0.0336,-0.0278,-0.0275,-0.0201,-0.0179,-0.0101,-0.0058,-0.0079,0.0044,0.0038,0.0045,0.0021,0.0024,0.0025,0.0024,-0.0048,0,0,0,0,0,-0.0504,-0.0492,-0.0457,-0.0456,-0.0445,-0.0403,-0.0384,-0.0362,-0.0308,-0.0285,-0.0214,-0.0144,-0.0075,-0.0026,0.0035,0.0115,0.0152,0.0146,0.0148,0.0149,0.0162,0.0235,0.0244,0.0142,0.0142,0.0142,0,0,-0.0516,-0.0497,-0.049,-0.0461,-0.0437,-0.0398,-0.0392,-0.0367,-0.0314,-0.027,-0.0176,-0.0137,-0.0057,0.0025,0.0064,0.0069,0.0196,0.0152,0.0152,0.0165,0.0238,0.0248,0.0257,0.0144,0.0143,0.0143,0,0,-0.0542,-0.0523,-0.0528,-0.0486,-0.0451,-0.0407,-0.0401,-0.0347,-0.0306,-0.0223,-0.0182,-0.0124,-0.0008,0.0055,0.01,0.0151,0.0192,0.0164,0.0191,0.0261,0.027,0.0279,0.0329,0.0342,0.0177,0.0177,0.0177,0,-0.0558,-0.0563,-0.0521,-0.0502,-0.0459,-0.0409,-0.0384,-0.0322,-0.0237,-0.0194,-0.0194,-0.0042,0.0012,0.0121,0.0133,0.0157,0.0195,0.0175,0.0263,0.0273,0.0282,0.0331,0.0346,0.0177,0.0177,0.0177,0.0177,0,-0.0577,-0.0571,-0.0566,-0.051,-0.0449,-0.0425,-0.0327,-0.0264,-0.0211,-0.0154,-0.0057,0.0011,0.0096,0.0119,0.0148,0.0239,0.0243,0.0245,0.0255,0.0291,0.0341,0.0357,0.0176,0.0177,0.0177,0.0177,0,0,-0.0627,-0.0595,-0.0587,-0.0578,-0.0453,-0.0418,-0.0293,-0.0194,-0.0132,-0.0048,0.003,0.0131,0.0138,0.0189,0.0223,0.0289,0.037,0.0293,0.0297,0.0337,0.0517,0.0428,0.0436,0.0386,0.0389,0.0392,0.0523,0,-0.0661,-0.0677,-0.0599,-0.0551,-0.0551,-0.0408,-0.0289,-0.0172,-0.0082,0.0014,0.0093,0.0163,0.0178,0.0193,0.027,0.0343,0.0412,0.0333,0.0482,0.0486,0.0399,0.0452,0.0428,0.0534,0.0538,0.054,0.0542,0,-0.0694,-0.0707,-0.0705,-0.0608,-0.0582,-0.0504,-0.0325,-0.0212,-0.0036,0.0024,0.0118,0.0171,0.0285,0.0269,0.0446,0.0394,0.0456,0.0511,0.0518,0.0453,0.0427,0.0503,0.0563,0.0568,0.0566,0.0564,0.0563,0,-0.0791,-0.0758,-0.0773,-0.0735,-0.0608,-0.0539,-0.0428,-0.023,-0.0144,0.0015,0.0054,0.0209,0.0259,0.0385,0.0475,0.0476,0.0645,0.0663,0.0651,0.0645,0.0663,0.0653,0.0788,0.0787,0.0787,0.0787,0.0786,0,-0.0851,-0.0852,-0.0838,-0.0837,-0.0796,-0.0638,-0.0535,-0.0399,-0.0227,-0.0152,0.0022,0.0065,0.0287,0.0396,0.0497,0.0605,0.0666,0.0671,0.0681,0.0654,0.0642,0.07,0.0688,0.0792,0.0791,0.079,0.0789,0,-0.0938,-0.0931,-0.0954,-0.0884,-0.0852,-0.0811,-0.0631,-0.056,-0.038,-0.028,-0.0243,-0.0025,0.0113,0.0304,0.0504,0.0604,0.0726,0.0738,0.0672,0.0671,0.0687,0.0673,0.0796,0.0795,0.0793,0.0792,0.0791,0,-0.0987,-0.1028,-0.1027,-0.1036,-0.1005,-0.0932,-0.086,-0.0664,-0.0598,-0.0374,-0.0358,-0.0179,-0.0086,0.0195,0.0409,0.0613,0.0632,0.0702,0.07,0.0694,0.0693,0.0681,0.067,0.0735,0.0734,0.0733,0.0732,0,-0.1078,-0.1087,-0.1107,-0.1147,-0.1123,-0.1079,-0.0986,-0.0962,-0.0732,-0.0658,-0.0551,-0.0455,-0.0171,0.0062,0.0344,0.0457,0.0678,0.0679,0.0737,0.0696,0.0636,0.0634,0.0626,0.0721,0.0722,0.0723,0.0723,0.0724,-0.113,-0.1181,-0.1216,-0.1222,-0.1212,-0.1184,-0.1132,-0.1064,-0.0972,-0.0795,-0.0734,-0.0543,-0.027,0.0115,0.0311,0.0544,0.0553,0.0657,0.0662,0.0669,0.0598,0.0534,0.0587,0.0588,0.0588,0.0588,0.0588,0,-0.1193,-0.1234,-0.1272,-0.1262,-0.1237,-0.1221,-0.1168,-0.1099,-0.1024,-0.0902,-0.0789,-0.0521,-0.0244,0.0036,0.0382,0.0571,0.0617,0.0606,0.0652,0.0659,0.0667,0.0598,0.0588,0.0588,0.0589,0.0589,0,0,-0.1221,-0.1277,-0.1286,-0.1254,-0.124,-0.1192,-0.1162,-0.1101,-0.1001,-0.0886,-0.0743,-0.0554,-0.0232,0.0012,0.0255,0.0439,0.0506,0.0456,0.0436,0.0469,0.0475,0.0671,0.0568,0,0,0,0,0]}],[{"header":{"parameterUnit":"m.s-1","parameterCategory":2,"la1":30.2991,"la2":30.254,"lo1":-89.0895,"lo2":-89.0444,"dy":0.0017,"dx":0.0017,"nx":28,"ny":28,"refTime":"2025-01-25T03:00:00:Z","depth":"4","parameterNumber":2,"parameterNumberName":"U-component_of_CURRENTS"},"data":[0,0,0,0,0,0,0,0,0,0,0,0,0,0,0,0,0,0,0,0,0,0,0,0,0,0,0,0,0,0,0,0,0,0,0,0,0,0,0,0,0,0,0,0,0,0,0,0,0,0,0,0,0,0,0,0,0,0,-0.1199,-0.12,0,-0.1251,-0.1251,-0.1252,-0.1277,-0.1277,-0.1277,-0.1277,-0.1288,-0.1288,-0.1288,0,0,0,0,0,0,0,0,0,0,0,0,0,-0.1123,-0.1124,-0.1199,-0.12,-0.12,-0.1251,-0.1251,-0.1252,-0.1277,-0.1277,-0.1277,-0.1277,-0.1288,-0.1288,-0.1288,0,0,0,0,0,0,0,0,0,0,0,0,0,-0.1162,-0.1124,-0.1199,-0.122,-0.1222,-0.125,-0.1251,-0.1252,-0.1277,-0.1277,-0.1277,-0.1277,-0.1288,-0.1288,-0.1288,-0.1288,0,0,-0.1289,-0.1289,0,0,0,0,0,0,0,0,-0.116,-0.1165,-0.1216,-0.1218,-0.1221,-0.1258,-0.1228,-0.1262,-0.1277,-0.1255,-0.1277,-0.1278,-0.1275,-0.1276,-0.1285,-0.1288,-0.1289,-0.1289,-0.1289,-0.129,-0.129,0,0,0,0,0,0,0,-0.1157,-0.1163,-0.1219,-0.1217,-0.122,-0.1227,-0.1233,-0.1235,-0.1262,-0.1257,-0.1259,-0.1267,-0.1276,-0.1284,-0.1285,-0.1289,-0.1289,-0.129,-0.129,-0.129,-0.1313,-0.1314,0,0,0,0,0,0,-0.1153,-0.116,-0.1217,-0.122,-0.1191,-0.1228,-0.1235,-0.1246,-0.1263,-0.1267,-0.1266,-0.1268,-0.1284,-0.1285,-0.1285,-0.136,-0.129,-0.129,-0.129,-0.1313,-0.1313,-0.1314,0,0,0,0,0,0,-0.1151,-0.1158,-0.1215,-0.1192,-0.12,-0.123,-0.1242,-0.1247,-0.1269,-0.1271,-0.1273,-0.1285,-0.1284,-0.1285,-0.1304,-0.1358,-0.129,-0.129,-0.1312,-0.1313,-0.1314,-0.1462,0,0,0,0,0,0,-0.1149,-0.1157,-0.1171,-0.1192,-0.1201,-0.1235,-0.1242,-0.1248,-0.1273,-0.1275,-0.1287,-0.1288,-0.1284,-0.1303,-0.1304,-0.1357,-0.129,-0.1312,-0.1313,-0.1313,-0.1456,-0.1467,-0.1477,0,0,0,0,0,-0.1146,-0.1157,-0.1172,-0.1179,-0.1217,-0.1235,-0.1241,-0.1261,-0.1274,-0.1282,-0.1298,-0.1288,-0.1309,-0.1305,-0.1305,-0.136,-0.1311,-0.1312,-0.1313,-0.1452,-0.1465,-0.1477,0,0,0,0,0,0,-0.1119,-0.1162,-0.1178,-0.1199,-0.122,-0.124,-0.1253,-0.127,-0.1291,-0.1297,-0.13,-0.1302,-0.1334,-0.1312,-0.1307,-0.136,-0.1306,-0.1307,-0.141,-0.1423,-0.1433,-0.1426,-0.1291,0,0,0,0,0,-0.1124,-0.1151,-0.1181,-0.1197,-0.121,-0.1237,-0.1251,-0.1266,-0.1284,-0.1295,-0.1304,-0.1312,-0.1336,-0.1352,-0.1347,-0.1385,-0.1348,-0.1412,-0.1423,-0.1432,-0.1422,-0.1425,-0.1436,-0.1317,-0.1317,-0.1317,0,0,-0.1117,-0.1144,-0.1159,-0.1195,-0.1214,-0.123,-0.1245,-0.1269,-0.1292,-0.1291,-0.1323,-0.1343,-0.1346,-0.1391,-0.1404,-0.1387,-0.1445,-0.1433,-0.1442,-0.1426,-0.1427,-0.1439,-0.145,-0.1318,-0.1318,-0.1318,0,0,-0.1107,-0.1142,-0.116,-0.1181,-0.1216,-0.1233,-0.1243,-0.1274,-0.1302,-0.1336,-0.1351,-0.1413,-0.1414,-0.1464,-0.1483,-0.1541,-0.149,-0.1525,-0.1595,-0.1601,-0.1611,-0.162,-0.1593,-0.1598,-0.1545,-0.1545,-0.1545,0,-0.11,-0.1125,-0.1164,-0.1181,-0.1195,-0.1234,-0.1244,-0.1282,-0.1316,-0.1355,-0.1351,-0.1433,-0.1459,-0.1551,-0.1584,-0.1575,-0.1534,-0.1564,-0.1619,-0.1626,-0.1633,-0.1603,-0.1607,-0.1553,-0.1552,-0.1551,-0.155,0,-0.1097,-0.1124,-0.1132,-0.1172,-0.1189,-0.1206,-0.1254,-0.1298,-0.1339,-0.1383,-0.1472,-0.1525,-0.1587,-0.1615,-0.1628,-0.1705,-0.1646,-0.1628,-0.1599,-0.1655,-0.1618,-0.162,-0.1563,-0.156,-0.1558,-0.1556,0,0,-0.1063,-0.1122,-0.1127,-0.1145,-0.1189,-0.1201,-0.1259,-0.1328,-0.1386,-0.1454,-0.1532,-0.1639,-0.1694,-0.1716,-0.1761,-0.1785,-0.1835,-0.1732,-0.1729,-0.1724,-0.1806,-0.175,-0.1745,-0.1818,-0.1819,-0.1819,-0.1764,0,-0.1049,-0.1076,-0.111,-0.1132,-0.1145,-0.1208,-0.1257,-0.1331,-0.1402,-0.1488,-0.1605,-0.168,-0.1725,-0.1781,-0.1827,-0.1806,-0.1842,-0.1849,-0.1732,-0.1728,-0.169,-0.1747,-0.1822,-0.1765,-0.1765,-0.1765,-0.1766,0,-0.1026,-0.1052,-0.1069,-0.1127,-0.1141,-0.1165,-0.1259,-0.1313,-0.1455,-0.152,-0.1646,-0.1713,-0.1823,-0.183,-0.1866,-0.1854,-0.1852,-0.1833,-0.183,-0.1721,-0.1676,-0.1691,-0.1767,-0.1767,-0.1767,-0.1767,-0.1767,0,-0.0966,-0.1019,-0.1034,-0.105,-0.1124,-0.1163,-0.1212,-0.133,-0.137,-0.1549,-0.1574,-0.1734,-0.1769,-0.181,-0.1847,-0.1836,-0.183,-0.1811,-0.1764,-0.1757,-0.1759,-0.175,-0.184,-0.184,-0.184,-0.184,-0.184,0,-0.0922,-0.0937,-0.1017,-0.1026,-0.1059,-0.1128,-0.1183,-0.1277,-0.1374,-0.1429,-0.1589,-0.1644,-0.1752,-0.1788,-0.183,-0.1802,-0.1834,-0.1773,-0.1749,-0.182,-0.1818,-0.176,-0.1751,-0.1838,-0.1839,-0.1839,-0.1839,0,-0.084,-0.0895,-0.0919,-0.1003,-0.1027,-0.1053,-0.1115,-0.1158,-0.126,-0.1326,-0.1373,-0.1522,-0.1599,-0.1693,-0.1746,-0.1735,-0.1751,-0.1748,-0.1811,-0.179,-0.1667,-0.1666,-0.1644,-0.1642,-0.164,-0.1638,-0.1637,0,-0.0796,-0.08,-0.088,-0.0889,-0.0925,-0.097,-0.0999,-0.1102,-0.1131,-0.1261,-0.1274,-0.1386,-0.1507,-0.1513,-0.1643,-0.1712,-0.1726,-0.1687,-0.1696,-0.1673,-0.1651,-0.1654,-0.1656,-0.1634,-0.1633,-0.1633,-0.1632,0,-0.0703,-0.0743,-0.0767,-0.0795,-0.0819,-0.0849,-0.0896,-0.0887,-0.1022,-0.1083,-0.1178,-0.128,-0.1359,-0.1481,-0.1546,-0.161,-0.1682,-0.1667,-0.1671,-0.1678,-0.166,-0.1641,-0.1646,-0.1626,-0.1627,-0.1627,-0.1628,0,-0.0633,-0.0623,-0.0665,-0.0684,-0.0718,-0.0743,-0.0779,-0.0826,-0.0865,-0.1002,-0.1046,-0.1222,-0.1346,-0.1428,-0.1509,-0.1555,-0.1539,-0.1482,-0.1494,-0.1503,-0.1498,-0.1457,-0.134,0,0,0,0,0,-0.0559,-0.0538,-0.0546,-0.058,-0.0623,-0.0657,-0.0718,-0.0763,-0.0863,-0.0896,-0.0968,-0.109,-0.1231,-0.1329,-0.1355,-0.1456,-0.1539,-0.1479,-0.1476,-0.159,-0.1597,-0.1614,0,0,0,0,0,0,-0.0502,-0.0498,-0.051,-0.0505,-0.0517,-0.0564,-0.0613,-0.0689,-0.0716,-0.083,-0.0921,-0.1011,-0.1172,-0.121,-0.1331,-0.1358,-0.1333,-0.158,-0.1578,-0.1585,-0.1592,-0.1598,-0.1618,0,0,0,0,0]},{"header":{"parameterUnit":"m.s-1","parameterCategory":2,"la1":30.2991,"la2":30.254,"lo1":-89.0895,"lo2":-89.0444,"dy":0.0017,"dx":0.0017,"nx":28,"ny":28,"refTime":"2025-01-25T03:00:00:Z","depth":"4","parameterNumber":3,"parameterNumberName":"V-component_of_CURRENTS"},"data":[0,0,0,0,0,0,0,0,0,0,0,0,0,0,0,0,0,0,0,0,0,0,0,0,0,0,0,0,0,0,0,0,0,0,0,0,0,0,0,0,0,0,0,0,0,0,0,0,0,0,0,0,0,0,0,0,0,0,-0.0329,-0.0329,0,-0.029,-0.029,-0.0289,-0.027,-0.027,-0.027,-0.0269,-0.0225,-0.0224,-0.0223,0,0,0,0,0,0,0,0,0,0,0,0,0,-0.0406,-0.0405,-0.0329,-0.0329,-0.0328,-0.029,-0.029,-0.0289,-0.027,-0.027,-0.027,-0.0269,-0.0225,-0.0224,-0.0223,0,0,0,0,0,0,0,0,0,0,0,0,0,-0.0372,-0.0405,-0.033,-0.0313,-0.0311,-0.029,-0.0289,-0.0289,-0.027,-0.027,-0.027,-0.0269,-0.0226,-0.0224,-0.0223,-0.0216,0,0,-0.0218,-0.0217,0,0,0,0,0,0,0,0,-0.0374,-0.0369,-0.0316,-0.0314,-0.0312,-0.0283,-0.03,-0.0264,-0.027,-0.0287,-0.0269,-0.0269,-0.0243,-0.024,-0.0235,-0.0214,-0.0212,-0.0217,-0.0216,-0.0216,-0.0215,0,0,0,0,0,0,0,-0.0376,-0.0371,-0.0315,-0.0315,-0.0313,-0.0314,-0.0309,-0.0293,-0.0267,-0.0285,-0.0284,-0.0277,-0.0242,-0.0237,-0.0234,-0.0211,-0.0217,-0.0216,-0.0215,-0.0214,-0.0244,-0.0246,0,0,0,0,0,0,-0.0377,-0.0373,-0.0316,-0.0314,-0.0342,-0.0312,-0.0307,-0.0294,-0.0268,-0.0263,-0.0277,-0.0276,-0.024,-0.0236,-0.0232,-0.0268,-0.0216,-0.0214,-0.0213,-0.0242,-0.0244,-0.0246,0,0,0,0,0,0,-0.0379,-0.0372,-0.0318,-0.0342,-0.0335,-0.0311,-0.0297,-0.0293,-0.0288,-0.0261,-0.0257,-0.0276,-0.0239,-0.0234,-0.0237,-0.0264,-0.0213,-0.0212,-0.024,-0.0243,-0.0245,-0.031,0,0,0,0,0,0,-0.0381,-0.0373,-0.0368,-0.0342,-0.0333,-0.0322,-0.0297,-0.0292,-0.0283,-0.0282,-0.0258,-0.0254,-0.0239,-0.024,-0.0235,-0.0261,-0.0211,-0.0238,-0.0241,-0.0244,-0.0305,-0.0314,-0.0322,0,0,0,0,0,-0.0384,-0.0376,-0.0368,-0.0361,-0.0326,-0.0323,-0.032,-0.0303,-0.0284,-0.0294,-0.028,-0.0255,-0.0258,-0.0239,-0.0234,-0.026,-0.0236,-0.024,-0.0244,-0.0302,-0.0312,-0.0321,0,0,0,0,0,0,-0.0403,-0.0372,-0.0363,-0.0344,-0.0343,-0.0319,-0.0319,-0.0305,-0.03,-0.0295,-0.0267,-0.0263,-0.028,-0.0262,-0.0242,-0.0282,-0.0247,-0.025,-0.0292,-0.0302,-0.031,-0.0313,-0.0209,0,0,0,0,0,-0.0406,-0.0392,-0.0373,-0.0362,-0.036,-0.034,-0.0335,-0.0326,-0.0314,-0.0311,-0.0299,-0.029,-0.0292,-0.029,-0.0289,-0.03,-0.0262,-0.0318,-0.0326,-0.0333,-0.0334,-0.0338,-0.0346,-0.0259,-0.0259,-0.0259,0,0,-0.0408,-0.039,-0.0381,-0.0366,-0.0357,-0.0381,-0.0337,-0.0335,-0.0359,-0.0307,-0.0335,-0.0316,-0.0303,-0.0325,-0.0331,-0.0312,-0.0328,-0.0338,-0.0344,-0.0341,-0.0343,-0.0351,-0.0358,-0.0262,-0.0261,-0.0261,0,0,-0.0426,-0.0394,-0.0403,-0.041,-0.0405,-0.0401,-0.0404,-0.0393,-0.0392,-0.0413,-0.0386,-0.0378,-0.0388,-0.0378,-0.0375,-0.0425,-0.0373,-0.0435,-0.0474,-0.0478,-0.0485,-0.0491,-0.0403,-0.04,-0.0438,-0.0438,-0.0438,0,-0.0432,-0.0444,-0.0409,-0.0436,-0.045,-0.0418,-0.0456,-0.0454,-0.045,-0.0449,-0.0438,-0.0433,-0.0414,-0.0426,-0.0451,-0.0441,-0.0412,-0.0434,-0.0488,-0.0493,-0.0497,-0.0407,-0.0403,-0.0441,-0.0441,-0.044,-0.044,0,-0.0474,-0.0492,-0.0499,-0.0526,-0.0539,-0.0559,-0.056,-0.0569,-0.056,-0.0552,-0.0558,-0.0528,-0.0517,-0.0521,-0.0501,-0.0527,-0.048,-0.0497,-0.0458,-0.051,-0.041,-0.0405,-0.0446,-0.0445,-0.0444,-0.0443,0,0,-0.0464,-0.0519,-0.0525,-0.0566,-0.0589,-0.0605,-0.0642,-0.0661,-0.0673,-0.0664,-0.0675,-0.0666,-0.0619,-0.0612,-0.0576,-0.058,-0.0564,-0.056,-0.0559,-0.0463,-0.0514,-0.0435,-0.042,-0.0606,-0.0607,-0.0607,-0.0411,0,-0.0513,-0.0591,-0.0602,-0.0687,-0.073,-0.0725,-0.0765,-0.0773,-0.0762,-0.0764,-0.0712,-0.0714,-0.0663,-0.0653,-0.0645,-0.0603,-0.0563,-0.0611,-0.0487,-0.0481,-0.0399,-0.0418,-0.061,-0.0407,-0.0406,-0.0405,-0.0405,0,-0.0558,-0.0605,-0.07,-0.0776,-0.0792,-0.084,-0.0877,-0.0907,-0.089,-0.0873,-0.0837,-0.0792,-0.0757,-0.0728,-0.0638,-0.0677,-0.0593,-0.0549,-0.0541,-0.0446,-0.0396,-0.0359,-0.0395,-0.0395,-0.0396,-0.0397,-0.0397,0,-0.0581,-0.0673,-0.0754,-0.0783,-0.0861,-0.0899,-0.0933,-0.0939,-0.0948,-0.0934,-0.0925,-0.0867,-0.0827,-0.0763,-0.0622,-0.0653,-0.0512,-0.0538,-0.036,-0.0348,-0.0447,-0.0443,-0.0467,-0.0467,-0.0468,-0.0468,-0.0469,0,-0.0626,-0.069,-0.0776,-0.0823,-0.0909,-0.0944,-0.1004,-0.102,-0.1018,-0.1007,-0.0975,-0.0927,-0.0851,-0.0742,-0.0635,-0.0451,-0.0502,-0.0352,-0.0312,-0.047,-0.0472,-0.0438,-0.0437,-0.0461,-0.0462,-0.0464,-0.0465,0,-0.0642,-0.0702,-0.0799,-0.0896,-0.0929,-0.0988,-0.105,-0.1065,-0.1078,-0.1059,-0.1056,-0.0973,-0.0827,-0.0689,-0.0543,-0.0443,-0.0301,-0.0211,-0.031,-0.028,-0.0121,-0.0127,-0.002,-0.0016,-0.0013,-0.001,-0.0008,0,-0.0657,-0.0712,-0.084,-0.0888,-0.0939,-0.1017,-0.1051,-0.1088,-0.108,-0.1054,-0.1025,-0.0906,-0.0814,-0.0521,-0.0404,-0.016,-0.0134,-0.0047,-0.0162,-0.0113,-0.0085,-0.0095,-0.0105,-0.0002,-0.0001,-0.0,0.0,0,-0.0675,-0.0725,-0.0798,-0.0897,-0.0961,-0.102,-0.1063,-0.106,-0.1063,-0.1083,-0.0962,-0.0829,-0.0638,-0.0457,-0.0249,-0.0091,-0.0127,-0.0012,-0.002,-0.0127,-0.009,-0.0068,-0.0081,0.0012,0.001,0.0009,0.0009,0,-0.0671,-0.0718,-0.0806,-0.0892,-0.0961,-0.0986,-0.1025,-0.0996,-0.0999,-0.0962,-0.0901,-0.0745,-0.0661,-0.0411,-0.0226,-0.0061,-0.0049,-0.004,-0.0047,-0.0058,-0.0151,-0.0114,0.0022,0,0,0,0,0,-0.0654,-0.0702,-0.0782,-0.087,-0.093,-0.0969,-0.1004,-0.1021,-0.102,-0.0922,-0.0912,-0.0725,-0.0466,-0.037,-0.0185,-0.0175,-0.0027,0.0043,-0.0021,0.0077,0.0064,-0.0036,0,0,0,0,0,0,-0.0644,-0.0715,-0.0769,-0.0822,-0.0865,-0.0918,-0.0938,-0.0946,-0.0886,-0.0872,-0.0729,-0.0688,-0.0432,-0.0559,-0.0182,-0.0137,-0.0156,0.0152,0.0155,0.0085,0.0073,0.0062,-0.0046,0,0,0,0,0]}]]